{"data":{"norad_id":55829,"intl_designator":"2023-029AK","name":"ONEWEB-0670","alt_names":[],"object_type":"PAYLOAD","status":"ACTIVE","operator":null,"country":"UK","launch_date":"2023-03-09","launch_site_code":"AFETR","launch_vehicle":null,"mission":null,"orbit_class":"UNKNOWN","rcs_meters":null,"size_class":null,"mass_kg":null,"dimensions":null,"purposes":["comms"],"wikipedia_slug":null,"has_3d_model":false,"image_url":null,"decayed_at":null,"tle_current":{"epoch":"2026-09-19T23:31:16.123872Z","epoch_age_seconds":63167,"freshness":"FRESH","line1":"1 55829U 23029AK  26262.98004773 -.00000125  00000+0 -37254-3 0  9994","line2":"2 55829  87.8887 270.8251 0002269  88.1035 272.0355 13.14503747171880","mean_motion":13.14503747,"eccentricity":0.0002269,"inclination_deg":87.8887,"raan_deg":270.8251,"arg_perigee_deg":88.1035,"mean_anomaly_deg":272.0355,"bstar":-0.00037254,"rev_number":17188,"period_min":109.54704414395,"perigee_km":1204.0659199245,"apogee_km":1207.5075045051,"semimajor_km":7583.9237122148,"source":"CELESTRAK","updated_at":"2026-09-20T09:00:44.784473Z"}}}